DW7126 Lourinha PT current weather conditions

sailwx.info

Wind from 044 at 6 knots gusting 10

Air temperature 16.7° C
Dewpoint 14.7° C

Last reported at 2016-Sep-25 19:50 UTC.
Time now 2016-Sep-25 20:57 UTC

Location: N 39°14' W 009°18'.
View on Google Maps.

See reports from other nearby stations

  
Tides and Currents Weather Stations Pressure Air Temp Water Temp Dewpoint Dewpoint Depression Visibility Wind Speed Wind Dir Waves Ship Positions
date/time (UTC)wind fromknots sea level pressurealtimeterstation pressurevisibilityair tempwater tempwave heightnotes
2016-Sep-25 19:50 044 6 gusting 10 16.7
2016-Sep-25 19:45 024 6 gusting 10 16.7
2016-Sep-25 19:40 023 7 gusting 10 16.7
2016-Sep-25 19:35 038 6 gusting 10 16.7
2016-Sep-25 19:30 029 5 gusting 9 16.7
2016-Sep-25 19:25 031 6 gusting 11 16.7
2016-Sep-25 19:20 037 5 gusting 11 16.7
2016-Sep-25 19:15 026 6 gusting 11 16.7
2016-Sep-25 19:10 035 6 gusting 12 16.7
2016-Sep-25 19:05 032 6 gusting 12 16.7
2016-Sep-25 19:00 025 7 gusting 13 17.2
2016-Sep-25 18:55 040 7 gusting 13 17.2
2016-Sep-25 18:45 024 8 gusting 13 17.2
2016-Sep-25 18:40 043 8 gusting 13 17.2
2016-Sep-25 18:35 360 7 gusting 14 17.2
2016-Sep-25 18:30 026 10 gusting 14 17.2
2016-Sep-25 18:25 032 10 gusting 16 17.2
2016-Sep-25 18:20 024 8 gusting 17 17.8
2016-Sep-25 18:15 032 12 gusting 17 17.8
2016-Sep-25 18:10 052 8 gusting 15 17.8
2016-Sep-25 18:05 037 6 gusting 15 17.8
2016-Sep-25 18:00 360 7 gusting 18 17.8
2016-Sep-25 17:55 360 10 gusting 18 17.8
2016-Sep-25 17:50 030 10 gusting 15 18.3
2016-Sep-25 17:45 360 11 gusting 15 18.3
2016-Sep-25 17:40 360 8 gusting 15 18.3
2016-Sep-25 17:35 034 7 gusting 14 18.3
2016-Sep-25 17:30 029 9 gusting 16 18.3
2016-Sep-25 17:25 360 10 gusting 16 18.3
2016-Sep-25 17:20 360 10 gusting 19 18.9
2016-Sep-25 17:15 360 12 gusting 19 18.9
2016-Sep-25 17:10 360 11 gusting 19 18.9
2016-Sep-25 17:05 065 13 gusting 19 18.9
2016-Sep-25 17:00 009 10 gusting 19 18.9
2016-Sep-25 16:55 009 11 gusting 19 19.4
2016-Sep-25 16:50 360 13 gusting 19 19.4
2016-Sep-25 16:45 360 10 gusting 18 19.4
2016-Sep-25 16:41 360 12 gusting 18 18.9
2016-Sep-25 16:35 360 13 gusting 18 19.4
2016-Sep-25 16:30 360 12 gusting 18 19.4
2016-Sep-25 16:25 360 8 gusting 17 19.4
2016-Sep-25 16:20 360 10 gusting 19 20.0
2016-Sep-25 16:15 360 13 gusting 19 20.0
2016-Sep-25 16:10 049 8 gusting 16 20.0
2016-Sep-25 16:05 013 8 gusting 17 20.0
2016-Sep-25 16:00 028 12 gusting 17 20.0
2016-Sep-25 15:55 036 9 gusting 15 20.0
2016-Sep-25 15:50 009 8 gusting 14 20.0
2016-Sep-25 15:45 360 9 gusting 17 20.0
2016-Sep-25 15:40 360 10 gusting 17 20.6
2016-Sep-25 15:35 010 8 gusting 13 20.6
2016-Sep-25 15:30 360 6 gusting 15 20.6
2016-Sep-25 15:25 341 7 gusting 15 20.6
2016-Sep-25 15:20 349 8 gusting 19 21.1
2016-Sep-25 15:15 360 12 gusting 19 21.1
2016-Sep-25 15:10 360 11 gusting 17 21.1
2016-Sep-25 15:05 027 7 gusting 16 21.7
2016-Sep-25 15:00 360 7 gusting 15 21.7
2016-Sep-25 14:55 360 7 gusting 15 21.1
2016-Sep-25 14:50 360 8 gusting 16 21.1
2016-Sep-25 14:45 339 8 gusting 16 21.1
2016-Sep-25 14:40 360 9 gusting 13 21.7
2016-Sep-25 14:35 360 7 gusting 15 21.7
2016-Sep-25 14:30 360 10 gusting 15 21.1
2016-Sep-25 14:25 360 9 gusting 15 21.7
2016-Sep-25 14:20 351 10 gusting 14 21.7
2016-Sep-25 14:10 360 10 gusting 14 21.7
2016-Sep-25 14:05 360 9 gusting 14 21.7
2016-Sep-25 14:00 360 10 gusting 14 21.7
2016-Sep-25 13:55 360 8 gusting 12 21.7
2016-Sep-25 13:50 021 7 gusting 17 21.7
2016-Sep-25 13:45 034 9 gusting 17 21.7
2016-Sep-25 13:40 349 7 gusting 13 21.7
2016-Sep-25 13:35 355 8 gusting 14 21.7
2016-Sep-25 13:30 360 10 gusting 14 22.2
2016-Sep-25 13:25 011 9 gusting 13 22.2
2016-Sep-25 13:20 355 7 gusting 13 22.2
2016-Sep-25 13:15 360 7 gusting 14 22.2
2016-Sep-25 13:10 360 7 gusting 14 22.2
2016-Sep-25 13:05 050 9 gusting 13 21.7
2016-Sep-25 13:00 360 9 gusting 13 21.7
2016-Sep-25 12:55 360 6 gusting 15 22.2
2016-Sep-25 12:50 015 6 gusting 15 21.7
2016-Sep-25 12:45 355 8 gusting 13 22.2
2016-Sep-25 12:40 336 6 gusting 16 22.2
2016-Sep-25 12:35 360 9 gusting 16 22.2
2016-Sep-25 12:30 009 7 gusting 17 22.8
2016-Sep-25 12:25 044 12 gusting 17 22.2
2016-Sep-25 12:20 360 9 gusting 15 22.2
2016-Sep-25 12:15 019 8 gusting 15 22.2
2016-Sep-25 12:10 032 8 gusting 17 22.2
2016-Sep-25 12:05 360 8 gusting 16 22.2
2016-Sep-25 12:00 039 11 gusting 16 22.2
2016-Sep-25 11:55 360 9 gusting 14 22.2
2016-Sep-25 11:50 016 7 gusting 17 21.7
2016-Sep-25 11:45 360 12 gusting 17 21.7
2016-Sep-25 11:40 012 8 gusting 13 22.2
2016-Sep-25 11:35 031 7 gusting 13 21.7
2016-Sep-25 11:25 360 6 gusting 12 21.7
2016-Sep-25 11:20 028 6 gusting 12 21.7
2016-Sep-25 11:15 034 5 gusting 9 21.1
2016-Sep-25 11:10 017 4 gusting 11 21.1
2016-Sep-25 11:05 042 5 gusting 13 21.1
2016-Sep-25 11:00 029 7 gusting 13 20.6
2016-Sep-25 10:55 036 6 gusting 13 21.1
2016-Sep-25 10:50 041 6 gusting 12 21.1
2016-Sep-25 10:45 350 7 gusting 12 20.6
2016-Sep-25 10:40 360 5 gusting 10 20.6
2016-Sep-25 10:35 009 4 gusting 10 20.6
2016-Sep-25 10:30 066 3 gusting 11 20.6
2016-Sep-25 10:25 036 5 gusting 11 20.0
2016-Sep-25 10:20 060 6 gusting 13 20.0
2016-Sep-25 10:15 360 8 gusting 13 20.0
2016-Sep-25 10:10 035 9 gusting 12 20.0
2016-Sep-25 10:05 360 6 gusting 13 19.4
2016-Sep-25 10:00 036 7 gusting 14 19.4
2016-Sep-25 09:55 060 6 gusting 14 19.4
2016-Sep-25 09:50 360 6 gusting 14 19.4
2016-Sep-25 09:45 028 9 gusting 13 19.4
2016-Sep-25 09:40 032 8 gusting 14 18.9
2016-Sep-25 09:35 059 9 gusting 14 18.9
2016-Sep-25 09:30 040 10 gusting 13 18.3
2016-Sep-25 09:25 030 6 gusting 11 18.3
2016-Sep-25 09:20 046 6 gusting 14 18.3
2016-Sep-25 09:15 029 10 gusting 14 17.8
2016-Sep-25 09:10 031 6 gusting 13 17.8
2016-Sep-25 09:05 043 6 gusting 13 17.8
2016-Sep-25 09:00 020 6 gusting 12 17.8
2016-Sep-25 08:55 360 6 gusting 12 17.8
2016-Sep-25 08:50 035 6 gusting 13 17.8
2016-Sep-25 08:45 030 6 gusting 13 17.2
2016-Sep-25 08:40 033 4 gusting 10 17.8
2016-Sep-25 08:35 044 5 gusting 10 17.2
2016-Sep-25 08:30 042 5 gusting 13 17.2
2016-Sep-25 08:25 030 8 gusting 17 17.2
2016-Sep-25 08:20 036 8 gusting 17 17.2
2016-Sep-25 08:15 360 6 gusting 12 17.2
2016-Sep-25 08:10 041 9 gusting 12 16.7
2016-Sep-25 08:05 027 5 gusting 11 16.7
2016-Sep-25 08:00 042 7 gusting 11 16.7
2016-Sep-25 07:55 061 6 gusting 9 16.7
2016-Sep-25 07:50 026 5 gusting 11 16.1
2016-Sep-25 07:45 050 6 gusting 11 16.1
2016-Sep-25 07:40 040 4 gusting 7 16.1
2016-Sep-25 07:35 048 5 gusting 9 16.1
2016-Sep-25 07:30 040 6 gusting 9 15.6
2016-Sep-25 07:25 030 4 gusting 6 15.6
2016-Sep-25 07:20 039 3 gusting 6 15.6
2016-Sep-25 07:15 040 2 gusting 6 15.6
2016-Sep-25 07:10 042 3 gusting 6 15.6
2016-Sep-25 07:05 046 3 gusting 6 15.6
2016-Sep-25 07:00 044 3 gusting 6 15.6
2016-Sep-25 06:55 044 3 gusting 8 15.0
2016-Sep-25 06:50 055 3 gusting 8 15.0
2016-Sep-25 06:45 059 2 gusting 5 15.0
2016-Sep-25 06:40 059 3 gusting 6 15.0
2016-Sep-25 06:35 065 4 gusting 6 15.0
2016-Sep-25 06:30 060 1 gusting 3 15.0
2016-Sep-25 06:25 061 0 gusting 4 15.0
2016-Sep-25 06:20 060 3 gusting 4 15.0
2016-Sep-25 06:15 063 1 gusting 4 15.0
2016-Sep-25 06:10 060 2 gusting 4 15.0
2016-Sep-24 20:15 229 8 gusting 12 18.9
2016-Sep-24 20:10 244 9 gusting 12 18.9
2016-Sep-24 20:05 257 7 gusting 11 18.9
2016-Sep-24 20:00 236 8 gusting 11 18.9
2016-Sep-24 19:55 243 7 gusting 11 18.9
2016-Sep-24 19:50 360 7 gusting 11 18.9
2016-Sep-24 19:45 245 7 gusting 10 18.9
2016-Sep-24 19:40 247 6 gusting 10 18.9
2016-Sep-24 19:35 227 9 gusting 11 18.9
2016-Sep-24 19:30 240 7 gusting 11 18.9
2016-Sep-24 19:25 234 8 gusting 11 18.9
2016-Sep-24 19:20 360 6 gusting 11 18.9
2016-Sep-24 19:10 229 8 gusting 12 18.9
2016-Sep-24 19:05 235 8 gusting 13 18.9
2016-Sep-24 19:00 229 9 gusting 13 18.9
2016-Sep-24 18:55 237 9 gusting 15 18.9
2016-Sep-24 18:50 228 9 gusting 15 18.9
2016-Sep-24 18:45 247 10 gusting 14 18.9
2016-Sep-24 18:40 236 11 gusting 14 18.9
2016-Sep-24 18:35 360 10 gusting 14 18.9
2016-Sep-24 18:30 360 10 gusting 13 18.9
2016-Sep-24 18:25 227 8 gusting 13 18.9
2016-Sep-24 18:20 360 9 gusting 13 18.9
2016-Sep-24 18:15 360 10 gusting 13 18.9
2016-Sep-24 18:10 259 10 gusting 14 19.4
2016-Sep-24 18:05 258 10 gusting 14 19.4
2016-Sep-24 18:00 244 8 gusting 13 19.4
2016-Sep-24 17:55 360 8 gusting 13 19.4
2016-Sep-24 17:50 261 11 gusting 13 20.0
2016-Sep-24 17:45 242 8 gusting 12 20.6
2016-Sep-24 17:40 360 6 gusting 13 20.6
2016-Sep-24 17:35 251 8 gusting 13 20.6
2016-Sep-24 17:30 360 9 gusting 13 20.0
2016-Sep-24 17:25 360 8 gusting 12 20.0
2016-Sep-24 17:20 360 7 gusting 13 20.0
2016-Sep-24 17:15 360 8 gusting 13 20.6
2016-Sep-24 17:10 360 9 gusting 14 20.6
2016-Sep-24 17:05 229 11 gusting 14 20.6
2016-Sep-24 17:00 360 9 gusting 15 20.0
2016-Sep-24 16:55 259 11 gusting 15 20.6
2016-Sep-24 16:50 236 10 gusting 14 20.6
2016-Sep-24 16:45 240 10 gusting 14 20.0
2016-Sep-24 16:40 360 9 gusting 15 20.6
2016-Sep-24 16:35 259 11 gusting 15 20.6
2016-Sep-24 16:30 248 9 gusting 14 20.6
2016-Sep-24 16:25 360 11 gusting 15 20.6
2016-Sep-24 16:15 226 11 gusting 16 20.6
2016-Sep-24 16:10 360 10 gusting 16 21.1
2016-Sep-24 16:00 360 9 gusting 15 21.1
2016-Sep-24 15:55 360 11 gusting 14 20.6
2016-Sep-24 15:50 360 9 gusting 13 21.1
2016-Sep-24 15:45 360 8 gusting 11 21.7
2016-Sep-24 15:40 360 8 gusting 13 21.1
2016-Sep-24 15:35 360 10 gusting 14 21.1
2016-Sep-24 15:30 232 9 gusting 15 21.7
2016-Sep-24 15:25 360 9 gusting 15 21.7
2016-Sep-24 15:20 360 11 gusting 15 21.1
2016-Sep-24 15:15 256 8 gusting 12 22.8
2016-Sep-24 15:10 263 8 gusting 13 22.8
2016-Sep-24 15:05 360 10 gusting 12 22.8
2016-Sep-24 15:00 360 6 gusting 15 22.2
2016-Sep-24 14:55 258 10 gusting 15 21.7
2016-Sep-24 14:50 360 11 gusting 15 22.2
2016-Sep-24 14:45 360 9 gusting 14 22.2
2016-Sep-24 14:40 360 10 gusting 16 22.2
2016-Sep-24 14:35 360 9 gusting 16 22.2
2016-Sep-24 14:30 240 11 gusting 14 22.8
2016-Sep-24 14:25 360 9 gusting 13 22.8
2016-Sep-24 14:20 360 10 gusting 13 22.8
2016-Sep-24 14:15 009 7 gusting 13 23.3
2016-Sep-24 14:10 283 9 gusting 15 22.2
2016-Sep-24 14:05 270 10 gusting 15 23.3
2016-Sep-24 14:00 360 7 gusting 14 23.3
2016-Sep-24 13:55 360 9 gusting 12 23.3
2016-Sep-24 13:50 360 7 gusting 13 23.9
2016-Sep-24 13:45 274 6 gusting 13 23.9
2016-Sep-24 13:40 360 6 gusting 12 24.4
2016-Sep-24 13:35 229 7 gusting 12 23.9
2016-Sep-24 13:30 360 7 gusting 12 23.3
2016-Sep-24 13:25 360 6 gusting 12 23.9
2016-Sep-24 13:20 360 6 gusting 11 23.9
2016-Sep-24 13:15 360 6 gusting 11 23.3
2016-Sep-24 13:10 234 5 gusting 12 24.4
2016-Sep-24 13:05 360 6 gusting 10 25.0
2016-Sep-24 12:55 360 6 gusting 9 23.9
2016-Sep-24 12:50 261 6 gusting 9 23.9
2016-Sep-24 12:45 242 6 gusting 10 23.9
2016-Sep-24 12:40 360 6 gusting 9 24.4
2016-Sep-24 12:35 215 5 gusting 9 23.3
2016-Sep-24 12:30 281 24.4
2016-Sep-24 12:25 281 5 gusting 11 23.9
2016-Sep-24 12:20 360 6 gusting 11 23.9
2016-Sep-24 12:15 274 0 gusting 1 23.9
2016-Sep-24 12:10 188 23.9
2016-Sep-24 12:05 182 0 gusting 2 23.9
2016-Sep-24 12:00 175 23.3
2016-Sep-24 11:55 211 22.8
2016-Sep-24 11:50 217 0 gusting 4 22.8
2016-Sep-24 11:45 176 0 gusting 5 22.8
2016-Sep-24 11:40 158 0 gusting 4 22.8
2016-Sep-24 11:35 201 1 gusting 4 21.7
2016-Sep-24 11:30 150 0 gusting 2 21.7
2016-Sep-24 11:25 111 0 gusting 4 21.7
2016-Sep-24 11:20 113 0 gusting 5 21.7
2016-Sep-24 11:15 144 0 gusting 5 21.1
2016-Sep-24 11:10 069 0 gusting 4 20.6
2016-Sep-24 11:05 101 20.6
2016-Sep-24 11:00 065 0 gusting 4 20.0
2016-Sep-24 10:55 074 1 gusting 5 20.0
2016-Sep-24 10:50 034 20.0
2016-Sep-24 10:45 033 1 gusting 5 19.4
2016-Sep-24 10:40 347 0 gusting 5 19.4
2016-Sep-24 10:35 323 0 gusting 3 19.4
2016-Sep-24 10:30 225 0 gusting 3 18.9
2016-Sep-24 10:25 203 0 gusting 3 18.9
2016-Sep-24 10:20 277 18.9
2016-Sep-24 10:15 285 0 gusting 1 18.3
2016-Sep-24 10:10 360 18.9
2016-Sep-24 10:05 286 0 gusting 2 18.3
2016-Sep-24 10:00 290 0 gusting 6 18.3
2016-Sep-24 09:55 351 1 gusting 6 18.3
2016-Sep-24 09:50 044 18.3
2016-Sep-24 09:45 053 1 gusting 3 18.3
2016-Sep-24 09:40 360 0 gusting 2 18.3
2016-Sep-24 09:35 072 18.3
2016-Sep-24 09:30 076 0 gusting 1 17.8
2016-Sep-24 09:25 076 17.8
2016-Sep-24 09:20 076 17.8
2016-Sep-24 09:15 076 17.2
2016-Sep-24 09:10 076 17.2
2016-Sep-24 09:05 076 17.2
2016-Sep-24 09:00 078 17.2
2016-Sep-24 08:55 078 0 gusting 1 16.7
2016-Sep-24 08:50 030 16.7
2016-Sep-24 08:45 030 0 gusting 1 16.7
2016-Sep-24 08:40 011 16.7
2016-Sep-24 08:35 009 0 gusting 0 16.7
2016-Sep-24 08:30 355 16.7
2016-Sep-24 08:25 355 0 gusting 1 16.7
2016-Sep-24 08:20 346 0 gusting 1 16.1
2016-Sep-24 08:15 344 16.1
2016-Sep-24 08:10 344 16.7
2016-Sep-24 08:05 346 16.1
2016-Sep-24 08:00 346 16.1
2016-Sep-24 07:55 347 16.7
2016-Sep-24 07:50 347 16.1
2016-Sep-24 07:45 347 16.1
2016-Sep-24 07:40 347 16.1
2016-Sep-24 07:35 347 16.1
2016-Sep-24 07:30 347 16.1
2016-Sep-24 07:25 347 16.1
2016-Sep-24 07:20 347 16.1
2016-Sep-24 07:15 346 16.1
2016-Sep-24 07:10 345 16.1
2016-Sep-24 07:05 345 16.1
2016-Sep-24 07:00 346 16.1
2016-Sep-24 06:55 336 16.1
2016-Sep-24 06:45 341 16.1
2016-Sep-24 06:40 340 0 gusting 1 16.1
2016-Sep-24 06:35 331 16.1
2016-Sep-24 06:30 330 0 gusting 2 16.1
2016-Sep-24 06:25 336 0 gusting 2 16.1
2016-Sep-24 06:20 337 0 gusting 2 16.1
2016-Sep-24 06:15 342 0 gusting 1 16.1
2016-Sep-24 06:10 342 0 gusting 1 15.6
2016-Sep-24 06:05 342 0 gusting 1 15.6
2016-Sep-24 06:00 342 0 gusting 2 15.6
2016-Sep-24 05:55 344 0 gusting 6 15.6
2016-Sep-24 05:50 338 2 gusting 6 15.6
2016-Sep-24 05:45 336 3 gusting 6 15.6
2016-Sep-24 05:40 331 3 gusting 5 15.6
2016-Sep-24 05:35 325 1 gusting 5 15.6
2016-Sep-24 05:30 309 2 gusting 5 15.6
2016-Sep-24 05:25 348 0 gusting 2 16.1
2016-Sep-24 05:20 355 0 gusting 2 16.1
2016-Sep-24 05:15 066 16.1
2016-Sep-24 05:10 066 16.1
2016-Sep-24 05:05 066 16.1
2016-Sep-24 05:00 066 16.1
2016-Sep-24 04:55 066 0 gusting 1 16.1
2016-Sep-24 04:50 065 16.1
2016-Sep-24 04:45 066 1 gusting 2 16.1
2016-Sep-24 04:40 069 16.1
2016-Sep-24 04:35 069 16.1
2016-Sep-24 04:25 069 16.1
2016-Sep-24 04:20 069 16.1
2016-Sep-24 04:15 069 0 gusting 1 16.1
2016-Sep-24 04:10 360 16.1
2016-Sep-24 04:05 073 16.1
2016-Sep-24 04:00 073 16.1
2016-Sep-24 03:55 072 16.1
2016-Sep-24 03:50 064 0 gusting 3 16.1
2016-Sep-24 03:40 064 1 gusting 4 16.1
2016-Sep-24 03:35 040 0 gusting 2 16.1
2016-Sep-24 03:30 040 0 gusting 4 16.1
2016-Sep-24 03:25 360 1 gusting 4 16.1
2016-Sep-24 03:20 078 16.1
2016-Sep-24 03:15 078 16.1
2016-Sep-24 03:10 078 16.1
2016-Sep-24 03:05 078 0 gusting 2 16.1
2016-Sep-24 03:00 078 16.1
2016-Sep-24 02:55 078 16.1
2016-Sep-24 02:50 078 0 gusting 3 16.1
2016-Sep-24 02:45 063 0 gusting 1 16.1
2016-Sep-24 02:40 057 16.1
2016-Sep-24 02:35 057 16.1
2016-Sep-24 02:30 057 16.1
2016-Sep-24 02:25 057 16.1
2016-Sep-24 02:20 057 16.1
2016-Sep-24 02:15 057 0 gusting 2 16.1
2016-Sep-24 02:10 057 16.1
2016-Sep-24 02:05 057 16.1
2016-Sep-24 02:00 057 16.1
2016-Sep-24 01:55 057 16.1
2016-Sep-24 01:50 059 1 gusting 5 16.1
2016-Sep-24 01:45 050 2 gusting 5 16.1
2016-Sep-24 01:40 063 2 gusting 6 16.1
2016-Sep-24 01:35 063 2 gusting 4 16.1
2016-Sep-24 01:30 048 0 gusting 6 16.1
2016-Sep-24 01:25 030 16.1
2016-Sep-24 01:20 031 0 gusting 1 16.1
2016-Sep-24 01:15 030 0 gusting 3 16.1
2016-Sep-24 01:10 030 0 gusting 5 15.6
2016-Sep-24 01:05 030 0 gusting 6 16.1
2016-Sep-24 01:00 028 4 gusting 6 16.1
2016-Sep-24 00:55 022 1 gusting 3 15.6
2016-Sep-24 00:50 024 1 gusting 3 15.6
2016-Sep-24 00:45 024 15.0
2016-Sep-24 00:40 024 15.0
2016-Sep-24 00:35 024 15.0
2016-Sep-24 00:30 024 15.0
2016-Sep-24 00:25 024 15.0
2016-Sep-24 00:20 024 15.6
2016-Sep-24 00:15 024 15.0
2016-Sep-24 00:10 025 15.6
2016-Sep-24 00:05 024 15.6
2016-Sep-24 00:00 025 15.6
2016-Sep-23 23:55 030 15.6
2016-Sep-23 23:50 024 15.6
2016-Sep-23 23:45 024 15.6
2016-Sep-23 23:40 024 15.6
2016-Sep-23 23:35 024 15.6
2016-Sep-23 23:30 024 15.6
2016-Sep-23 23:25 024 15.6
2016-Sep-23 23:20 024 15.6
2016-Sep-23 23:15 024 15.6
2016-Sep-23 23:10 024 15.6
2016-Sep-23 23:05 024 15.6
2016-Sep-23 23:00 024 15.6
2016-Sep-23 22:55 024 15.6
2016-Sep-23 22:50 024 16.1
2016-Sep-23 22:45 024 16.1
2016-Sep-23 22:40 024 16.1
2016-Sep-23 22:35 024 16.1
2016-Sep-23 22:30 024 16.7
2016-Sep-23 22:25 024 16.1
2016-Sep-23 22:20 024 16.7
2016-Sep-23 22:10 024 16.7
2016-Sep-23 22:05 024 16.7
2016-Sep-23 22:00 024 16.7
2016-Sep-23 21:55 024 16.7
2016-Sep-23 21:50 024 17.2
2016-Sep-23 21:45 024 17.2
2016-Sep-23 21:40 024 17.2
2016-Sep-23 21:35 024 17.2
2016-Sep-23 21:25 024 17.2
2016-Sep-23 21:20 024 17.2
2016-Sep-23 21:15 026 17.2
2016-Sep-23 21:10 025 0 gusting 3 17.2
2016-Sep-23 21:05 020 0 gusting 3 17.8
2016-Sep-23 21:00 010 1 gusting 4 17.8
2016-Sep-23 20:55 005 0 gusting 2 17.8
2016-Sep-23 20:50 005 0 gusting 2 17.8
2016-Sep-23 20:45 005 17.8
2016-Sep-23 20:40 005 17.8
2016-Sep-23 20:35 005 17.8
2016-Sep-23 20:25 005 0 gusting 1 17.8
2016-Sep-23 20:20 005 17.8
2016-Sep-23 20:15 005 17.8
2016-Sep-23 20:10 005 18.3
2016-Sep-23 20:05 005 18.3
2016-Sep-23 20:00 005 18.3